PST,Max TemperatureF,Mean TemperatureF,Min TemperatureF,Max Dew PointF,MeanDew PointF,Min DewpointF,Max Humidity, Mean Humidity, Min Humidity, Max Sea Level PressureIn, Mean Sea Level PressureIn, Min Sea Level PressureIn, Max VisibilityMiles, Mean VisibilityMiles, Min VisibilityMiles, Max Wind SpeedMPH, Mean Wind SpeedMPH, Max Gust SpeedMPH,PrecipitationIn, CloudCover, Events, WindDirDegrees
2012-12-1,62,59,56,59,56,54,100,93,86,29.99,29.91,29.81,10,6,2,20,9,35,1.12,8,Rain,165
2012-12-2,63,53,43,59,51,41,93,73,53,30.09,29.84,29.63,10,7,1,33,9,46,1.67,6,Rain,238
2012-12-3,60,50,40,49,43,39,100,78,55,30.19,30.14,30.09,10,7,1,9,2,10,0.00,3,Fog,309
2012-12-4,56,54,51,54,52,48,100,92,83,30.20,30.15,30.11,10,6,2,7,1,9,0.71,8,Rain,62
2012-12-5,61,58,54,58,55,53,100,95,90,30.16,30.11,30.08,10,3,1,7,1,9,0.31,8,Rain,335
2012-12-6,61,51,40,55,47,39,100,80,60,30.14,30.11,30.06,10,5,0,10,5,13,0.01,4,Fog-Rain,316
2012-12-7,62,49,36,46,40,36,100,75,49,30.14,30.09,30.05,10,5,0,7,2,8,0.00,1,Fog,315
2012-12-8,60,47,33,45,38,32,100,77,53,30.12,30.07,30.02,10,5,0,6,2,7,0.00,2,Fog,308
2012-12-9,69,54,38,47,42,37,100,71,42,30.17,30.12,30.08,10,9,7,14,5,15,0.00,1,,328
2012-12-10,68,53,37,51,43,37,100,76,52,30.22,30.16,30.09,10,3,0,6,1,7,0.01,0,Fog,332
2012-12-11,55,46,36,48,43,36,100,87,74,30.09,29.93,29.82,10,4,0,10,3,13,0.04,6,Fog-Rain,163
2012-12-12,54,44,34,46,40,33,100,80,59,29.90,29.83,29.80,10,4,0,8,2,9,0.00,4,Fog,342
2012-12-13,55,43,31,37,33,30,100,73,45,29.92,29.88,29.84,10,7,1,9,4,12,0.00,0,,318
2012-12-14,54,43,32,41,35,31,100,77,54,30.04,29.92,29.81,10,5,0,12,2,15,0.03,3,Fog-Rain,305
2012-12-15,46,38,30,42,36,28,100,92,83,30.07,30.02,29.97,10,4,0,12,3,18,0.12,6,Fog-Rain,42
2012-12-16,52,48,43,52,46,42,100,95,89,30.09,30.03,29.96,6,3,1,10,3,15,0.37,8,Rain,144
2012-12-17,59,51,43,54,49,33,100,79,57,30.02,29.97,29.94,10,6,1,16,5,23,0.21,6,Rain,236
2012-12-18,52,42,32,35,30,28,82,62,42,30.18,30.06,29.98,10,10,9,21,8,24,0.00,1,,332
2012-12-19,52,39,26,31,28,25,92,67,41,30.30,30.23,30.18,10,9,6,8,2,10,0.00,1,,312
2012-12-20,54,44,33,47,39,30,92,74,56,30.18,30.04,29.92,10,8,4,21,8,26,0.39,7,Rain,160
2012-12-21,55,52,49,52,48,46,96,90,83,29.90,29.85,29.80,10,4,1,22,9,28,2.55,8,Rain,158
2012-12-22,55,49,43,49,44,40,96,78,59,30.04,29.87,29.78,10,8,2,25,6,36,0.59,7,Rain-Thunderstorm,169
2012-12-23,59,50,41,55,47,39,100,89,77,30.01,29.89,29.79,10,5,1,29,7,37,2.37,5,Rain,204
2012-12-24,55,45,34,45,38,33,100,80,59,30.20,30.11,30.01,10,4,0,6,1,9,T,3,Fog-Rain,6
2012-12-25,46,42,38,43,41,37,100,95,89,30.14,29.96,29.75,10,4,0,22,3,26,0.65,7,Fog-Rain,25
2012-12-26,56,47,37,45,40,37,100,78,55,30.08,29.91,29.84,10,5,0,20,5,24,0.51,5,Fog-Rain,303
2012-12-27,56,47,37,38,36,34,92,68,43,30.15,30.11,30.07,10,10,7,13,3,16,0.00,2,,338
2012-12-28,47,40,32,41,36,30,100,88,76,30.18,30.12,30.03,10,5,1,7,1,8,0.06,4,Fog-Rain,317
2012-12-29,57,48,38,41,39,35,93,72,50,30.06,30.03,29.99,10,9,6,14,4,17,0.01,6,Fog-Rain,320
2012-12-30,57,44,31,39,34,30,100,74,47,30.17,30.07,30.04,10,6,1,8,3,10,0.00,0,Fog,313
2012-12-31,53,41,28,40,33,26,100,74,48,30.28,30.23,30.18,10,6,1,9,3,9,0.00,2,Fog,309